User: anonymous   Login
Location: Proctor
(47.8934°N, 114.3048°W)
Time: 06:38:10
(UTC+00:00)
Language:

ISS - Orbit

View from above orbital plane
View from above orbital plane
View from above satellite
View from above satellite

Ground track
Ground track

The orbit data is extracted from the following two-line orbital elements,

1 25544U 98067A   24165.84582315  .00015018  00000-0  26535-3 0  9993
2 25544  51.6390 331.8266 0008291 295.4772  64.5359 15.50532670458037
Epoch (UTC): 13 June 2024 20:17:59
Eccentricity: 0.0008291
inclination: 51.6390°
perigee height: 409 km
apogee height: 421 km
right ascension of ascending node: 331.8266°
argument of perigee: 295.4772°
revolutions per day: 15.50532670
mean anomaly at epoch: 64.5359°
orbit number at epoch: 45803

The dashed part of the orbit path shows where the satellite is in the earth's shadow,  

DLR